Overview Statistics Trail Chart Weather Telemetry Raw packets
 

This is the latest recevied weather packets stored in our database for station/object VA2EYZ-13. If no packets are shown the sender has not sent any weather packets the latest 10 day(s).

<< 2 3 4 5 6 7 8 >>
Time Temp. Humidity Pressure Rain* Wind** Luminosity Snow
1788490958 20.56° C 82% 1011 hPa - - - -
1788489082 20.56° C 81% 1011 hPa - - - -
1788488122 20.56° C 81% 1011.1 hPa - - - -
1788485436 21.11° C 80% 1011 hPa - - - -
1788482965 21.67° C 78% 1011 hPa - - - -
1788480749 21.67° C 78% 1010 hPa - - - -
1788480213 22.22° C 78% 1010 hPa - - - -
1788477610 23.33° C 73% 1009 hPa - - - -
1788477103 23.33° C 73% 1009 hPa - - - -
1788474471 25° C 69% 1010.4 hPa - - - -
1788472311 26.11° C 68% 1010 hPa - - - -
1788471552 26.11° C 67% 1010 hPa - - - -
1788471164 26.11° C 66% 1010 hPa - - - -
1788470709 26.11° C 68% 1010.9 hPa - - - -
1788469358 26.67° C 70% 1010.1 hPa - - - -
1788469055 26.67° C 70% 1010 hPa - - - -
1788468654 26.11° C 70% 1010 hPa - - - -
1788467890 26.11° C 70% 1010 hPa - - - -
1788467570 26.11° C 70% 1010 hPa - - - -
1788466810 26.67° C 68% 1010.2 hPa - - - -
1788466507 26.67° C 66% 1010.2 hPa - - - -
1788465865 26.67° C 66% 1010 hPa - - - -
1788465191 26.67° C 72% 1010 hPa - - - -
1788464566 26.67° C 75% 1010 hPa - - - -
1788463216 26.11° C 73% 1010 hPa - - - -

* Rain since midnight (hover to see other rain measurements)
** Current wind speed in m/s (hover to see current wind gust speed)